Dewpoint
49 42 38 33 26 24 21 16 16 22 49 53 54 53 53 54 52 50 66 66 69 69 70 71 71 70 70 70 70 70 71 71 71 71 70 70 71 71 71 70 71 71 71 70 71 71 71 71 68
47 36 32 29 22 16 15 20 15 33 52 53 52 52 53 53 56 63 63 67 68 69 70 70 71 71 70 69 70 70 71 71 71 71 71 70 70 71 71 71 70 71 71 71 70 71 71 70 68
38 34 28 27 24 19 16 17 14 44 52 43 47 47 51 52 61 64 66 66 67 68 69 70 70 70 70 69 69 70 70 70 70 71 71 71 70 70 71 70 71 71 71 70 70 70 70 68 67
33 28 28 23 21 23 22 19 38 43 46 45 44 45 47 51 60 66 66 66 67 67 69 69 69 70 70 70 70 70 70 69 70 70 71 71 71 70 70 70 70 71 72 71 70 71 70 68 66
31 26 24 24 23 24 24 20 21 35 39 42 42 49 52 60 68 68 67 68 68 68 69 69 69 69 70 70 71 71 70 70 70 70 70 71 71 71 71 70 70 70 71 72 72 71 70 68 66
28 26 22 22 23 24 23 21 28 35 34 35 42 43 39 53 62 59 59 58 60 61 62 63 67 69 69 69 69 69 70 70 70 71 71 71 71 71 71 71 70 70 70 71 70 71 71 70 69
24 25 24 23 21 21 23 23 29 32 32 30 31 36 33 57 56 54 53 53 53 55 57 59 61 65 68 69 69 68 68 69 69 70 71 71 71 71 71 71 71 70 70 70 70 70 70 70 70
23 24 20 19 17 22 23 23 26 26 25 30 29 27 33 53 51 50 50 50 50 51 53 56 59 63 66 68 69 69 69 69 68 68 68 68 69 70 70 70 70 70 70 70 69 68 68 69 69
20 15 15 15 20 23 20 22 25 27 27 28 33 34 48 51 48 47 45 45 46 48 50 53 56 60 64 66 67 69 66 64 63 64 65 68 68 68 68 66 67 67 66 68 68 69 68 67 66
15 15 14 14 22 20 17 20 19 25 28 34 40 44 46 46 46 44 43 42 43 45 48 50 54 58 61 63 65 65 64 60 58 58 61 62 63 63 64 64 65 64 64 65 65 65 67 67 67
15 15 15 14 23 20 17 16 19 26 27 33 38 42 43 44 45 43 42 42 43 44 45 47 52 55 58 59 61 61 59 58 56 54 55 57 58 59 60 62 64 62 61 63 64 64 65 65 65
19 17 15 15 22 17 15 17 16 20 24 32 39 41 43 43 43 42 42 41 41 41 42 43 46 53 55 56 57 58 55 53 53 53 52 52 52 54 56 58 56 57 60 61 63 63 64 64 65
17 20 21 19 19 18 18 16 15 20 31 37 40 41 42 42 42 42 42 42 41 40 40 41 43 48 54 54 54 53 51 49 47 47 48 48 49 50 52 52 52 53 56 57 59 59 62 63 63
21 24 24 22 19 20 18 17 19 22 35 38 39 40 40 40 41 41 41 40 39 39 39 40 43 45 49 53 52 50 47 46 45 45 45 46 46 47 48 48 48 49 52 53 53 53 55 61 62
24 22 22 21 18 18 20 18 18 25 35 37 38 39 40 40 41 40 40 39 39 39 39 39 40 41 45 47 47 46 45 45 44 44 45 45 45 45 46 44 44 45 47 48 49 49 51 52 56
20 20 16 16 18 17 17 13 17 27 35 35 37 39 39 39 40 40 40 40 39 39 38 40 40 40 42 44 45 44 44 43 43 43 43 44 45 45 43 42 41 43 43 43 43 45 46 48 51
20 -1 16 15 19 18 16 12 12 23 34 35 37 38 38 38 39 39 39 39 38 39 39 38 39 40 41 42 42 42 41 40 41 41 42 40 39 40 40 39 38 40 40 40 40 40 42 43 45
4 15 17 16 18 19 18 16 18 22 30 34 36 37 37 37 37 38 39 39 39 39 38 38 38 39 40 40 40 40 40 39 38 39 37 37 37 36 37 36 36 38 38 37 37 36 38 42 39
20 20 20 20 20 19 18 18 18 20 25 34 36 37 37 37 37 38 38 39 39 37 36 37 37 37 38 38 37 37 36 37 37 37 36 35 35 35 34 35 35 36 36 35 36 35 36 39 38
24 22 21 21 22 20 19 17 17 18 20 25 36 36 36 37 37 38 39 38 37 35 36 36 37 37 37 37 38 38 36 35 35 35 34 33 33 33 32 33 34 34 34 33 34 33 34 36 37
23 22 21 20 20 18 16 15 16 16 18 19 36 36 37 37 37 38 38 37 35 35 35 36 36 36 36 36 36 36 35 34 33 32 32 33 32 33 33 32 33 33 33 33 33 33 34 33 35
23 23 22 21 17 16 17 14 14 15 16 17 23 36 37 37 38 38 38 35 34 35 36 36 35 35 35 34 33 32 32 31 32 32 32 32 32 32 32 32 32 32 33 32 32 33 33 33 32
22 22 21 19 18 17 17 15 15 15 14 15 19 35 37 38 38 38 38 35 35 35 35 35 34 33 33 33 33 32 31 31 31 31 30 31 31 31 31 31 31 30 31 31 31 32 32 32 32
20 19 18 19 18 14 16 15 13 14 15 22 29 34 36 38 38 39 37 35 35 35 35 34 33 32 32 32 31 30 30 29 29 29 29 29 30 30 30 30 29 28 29 29 31 31 30 30 30
18 17 14 13 14 13 15 15 14 21 33 32 27 34 36 38 38 37 34 34 34 34 34 34 33 32 32 31 31 30 29 29 29 29 29 28 28 29 29 28 28 27 28 29 31 28 28 28 29
16 17 14 10 10 10 18 13 15 37 37 36 35 34 37 36 36 36 34 34 34 34 34 34 33 32 31 31 30 30 30 30 30 29 28 28 28 28 28 26 27 26 27 28 26 26 26 25 26
15 16 18 15 20 17 17 23 28 36 36 36 36 36 35 35 35 35 34 34 34 34 34 33 33 32 31 31 30 30 29 29 29 28 28 28 27 25 26 23 24 25 26 27 24 24 23 23 23
16 20 16 20 13 13 16 18 18 32 35 37 36 36 36 35 34 35 34 34 34 34 35 35 34 32 31 31 30 30 30 29 29 27 26 27 25 24 24 22 22 23 25 26 23 22 22 21 21
18 17 20 19 19 12 12 14 21 27 35 36 37 37 37 36 35 35 34 33 34 35 35 35 33 32 32 31 30 29 28 28 27 25 24 25 23 22 22 22 22 23 23 24 21 20 20 20 20
23 22 24 18 19 23 22 19 28 29 29 31 38 39 39 39 37 35 34 34 34 34 34 34 33 32 32 31 30 28 28 27 25 24 24 24 21 21 21 22 22 23 22 19 19 19 18 19 19
Wind_Speed
13 11 3 3 2 4 0 2 2 8 4 2 5 8 12 4 2 4 5 6 12 15 9 7 7 6 6 5 6 8 9 10 12 13 13 14 14 15 14 13 11 10 9 9 9 8 7 8 7
10 2 4 3 3 4 0 4 3 10 16 17 15 9 12 7 6 8 5 8 11 12 9 9 8 8 7 6 5 6 6 8 9 9 10 11 11 12 13 13 11 10 9 8 8 8 7 7 6
4 3 2 4 3 4 2 5 4 13 18 3 6 6 5 2 7 4 9 15 12 10 8 8 10 9 8 7 6 6 5 5 5 6 7 7 7 8 9 10 10 9 9 8 7 8 8 8 7
4 4 5 3 1 4 4 3 13 13 9 7 10 10 4 6 3 10 14 13 11 8 7 7 10 8 8 6 7 6 5 5 4 4 4 4 4 5 6 7 8 8 8 8 8 8 8 8 8
5 4 3 2 4 5 6 2 9 7 6 11 6 7 6 6 17 14 17 17 17 15 12 11 11 8 6 4 4 5 5 4 3 3 4 4 4 5 6 8 9 9 10 9 9 10 10 10 9
3 3 2 2 5 6 6 1 6 6 9 15 16 14 7 10 18 18 20 20 18 18 15 16 15 12 7 4 1 2 3 2 2 2 3 3 5 6 8 8 9 10 11 11 12 12 13 13 13
3 3 1 2 4 6 2 4 7 15 16 4 13 12 7 15 12 19 21 22 21 19 19 16 16 15 14 8 5 6 7 7 7 7 5 5 6 8 9 10 11 12 13 14 15 16 16 16 16
4 3 3 4 3 3 6 3 10 7 3 6 5 7 12 10 14 21 23 21 22 21 20 19 17 15 13 14 15 9 10 13 15 14 13 11 10 10 11 13 13 13 14 15 17 19 20 19 17
3 0 4 4 3 2 5 3 5 1 9 4 4 5 15 18 13 22 22 21 19 19 19 16 17 16 16 14 13 12 18 18 18 15 17 10 7 9 9 13 15 17 15 10 12 17 20 21 18
2 3 8 5 2 2 2 4 1 6 6 6 15 17 14 11 13 23 20 18 19 18 18 16 16 15 14 12 13 14 14 15 15 15 15 13 13 12 10 10 13 16 16 15 12 13 12 12 10
0 5 6 6 8 4 0 1 2 16 7 18 27 21 13 16 17 22 19 18 17 12 15 14 13 14 14 13 11 12 12 11 13 18 17 13 11 12 12 10 11 11 13 11 11 10 8 6 7
2 4 4 5 5 5 3 2 1 4 6 12 20 21 14 18 18 19 19 16 16 15 13 12 12 14 15 13 14 13 13 12 13 15 15 13 13 13 11 11 12 13 12 11 11 11 9 9 6
5 3 6 7 6 4 3 5 6 1 6 20 18 17 20 20 19 16 17 16 15 16 13 12 12 13 13 17 15 14 13 13 13 13 15 14 13 12 11 12 11 12 12 11 12 12 10 8 3
6 9 9 6 6 3 8 6 3 4 17 18 19 17 17 22 20 17 15 16 15 14 14 13 15 14 15 16 17 15 14 13 14 15 16 15 12 13 13 13 14 14 12 10 11 12 12 9 5
6 10 11 9 9 10 12 11 15 13 16 20 19 17 15 13 14 16 15 17 16 14 13 15 15 14 18 17 16 15 14 14 15 14 17 17 17 15 14 14 15 15 14 15 13 13 11 12 11
4 4 8 4 4 6 16 21 21 22 26 24 22 18 16 13 13 14 16 17 15 16 15 11 10 15 17 18 16 15 15 15 14 14 14 16 16 15 14 13 14 14 14 14 14 14 14 12 11
0 11 8 8 3 2 10 8 22 22 25 23 20 17 16 15 13 13 14 18 16 16 15 14 12 14 16 17 16 16 16 15 13 13 13 15 16 15 13 13 13 14 13 14 14 14 12 13 15
10 9 6 9 2 4 4 17 11 5 24 29 20 18 17 19 17 15 14 14 14 14 13 13 11 11 15 16 15 14 14 13 13 13 14 15 14 15 13 12 13 12 12 13 14 13 13 6 15
3 4 6 9 11 6 7 11 16 4 7 15 19 23 19 17 13 14 14 14 15 13 13 10 11 7 9 10 12 12 11 11 13 13 14 14 14 12 14 11 12 12 12 13 14 11 13 7 18
15 14 16 15 15 4 10 13 15 7 14 19 23 20 22 18 18 16 16 13 11 13 13 12 11 11 9 6 7 7 9 12 10 11 13 14 15 15 14 14 13 13 11 14 14 16 11 6 15
16 13 14 17 9 3 4 12 17 15 17 10 22 29 23 27 25 19 17 15 14 14 14 14 12 12 11 10 13 13 10 7 9 11 11 13 14 13 14 14 13 13 13 13 14 14 14 11 7
19 11 16 14 5 12 1 22 11 13 14 12 13 23 24 25 19 20 18 16 15 14 15 15 13 13 12 13 15 17 12 10 6 9 9 11 13 13 14 14 14 13 12 13 13 12 11 11 11
10 11 15 10 11 5 4 8 7 11 12 17 15 20 23 25 24 21 20 18 17 16 16 17 16 14 14 14 13 17 16 12 9 10 10 12 12 13 13 13 13 13 12 12 13 12 12 11 10
1 7 6 4 3 18 12 15 20 18 9 7 8 15 21 22 20 17 17 19 17 15 15 15 16 14 13 14 14 18 16 13 12 11 11 11 9 10 13 12 12 12 12 12 10 11 12 12 10
6 8 6 8 8 21 15 15 21 10 12 11 14 10 16 18 20 22 22 20 18 16 16 15 15 15 14 14 15 15 15 14 12 10 10 10 9 8 13 12 12 12 13 13 11 13 13 13 12
17 18 14 11 15 16 7 11 7 5 9 14 13 17 18 18 21 22 19 19 20 17 14 15 15 14 12 12 14 13 12 12 10 10 10 9 9 10 11 11 12 13 13 12 12 11 10 11 11
11 24 17 12 2 5 7 3 3 4 10 16 19 19 18 20 22 25 25 27 24 24 26 29 21 19 17 16 13 12 12 11 11 10 10 10 11 9 11 11 12 12 11 10 10 10 11 10 10
19 12 8 6 20 19 7 6 9 10 12 13 17 21 22 23 26 28 23 22 19 18 17 15 17 19 17 17 14 12 11 10 10 11 12 10 11 11 13 12 11 11 11 10 9 9 10 10 11
3 8 2 7 6 20 12 8 7 15 15 14 16 21 28 29 29 24 20 20 19 17 17 14 15 16 14 15 15 14 11 10 13 12 10 11 11 12 12 11 9 10 12 11 11 8 11 12 12
4 4 3 8 5 1 2 8 3 8 9 11 19 19 20 23 24 22 23 21 20 19 17 17 17 16 15 15 13 12 12 13 13 10 10 10 11 10 10 8 9 9 10 12 11 10 11 13 13
Wind_Direction
324 320 154 55 130 67 172 224 266 162 51 355 127 126 122 68 65 135 51 115 108 123 130 144 145 143 125 113 106 111 113 109 111 120 126 130 134 135 137 139 141 139 139 141 140 141 147 131 139
320 322 47 85 96 92 160 261 99 149 142 126 96 83 66 74 56 96 56 105 122 130 145 135 130 116 116 128 131 117 113 120 126 128 134 139 145 148 149 152 153 152 152 154 150 150 146 142 156
303 20 94 87 103 103 195 240 122 145 161 156 106 62 73 42 50 68 138 136 131 133 133 128 118 116 129 137 136 130 127 125 129 140 146 152 159 163 163 163 168 171 171 177 177 174 166 165 178
359 4 46 96 138 234 231 212 132 125 103 78 117 78 63 346 92 130 148 137 114 83 79 103 107 117 112 122 136 143 144 157 169 170 168 171 185 193 193 192 193 195 199 201 201 191 192 192 195
39 52 57 67 294 265 277 252 190 158 128 118 117 110 83 37 90 80 73 74 82 65 57 51 41 38 57 106 126 137 153 172 194 209 219 211 219 229 227 222 222 219 219 222 222 220 209 206 219
31 73 60 172 285 276 286 330 150 110 123 114 109 113 94 58 77 68 68 66 62 64 50 41 32 29 27 10 352 151 147 172 200 233 257 258 248 249 251 249 246 243 242 243 244 235 231 223 220
105 83 200 247 281 318 35 49 118 134 140 123 140 122 106 88 93 90 77 65 55 48 44 33 27 22 26 11 349 5 5 6 9 1 335 300 280 272 267 262 257 253 247 245 249 256 249 237 224
105 112 163 241 289 265 347 88 119 130 140 113 113 166 156 150 110 90 74 64 55 44 36 25 20 20 29 28 31 40 41 44 40 28 9 348 339 337 330 323 322 311 288 265 254 254 253 252 236
118 52 210 228 202 247 348 136 123 57 132 72 354 112 126 138 126 89 78 62 59 49 41 30 26 21 19 28 27 49 61 50 38 27 19 13 15 19 30 44 38 31 15 347 313 298 280 265 258
167 166 222 234 223 225 44 102 327 111 130 73 92 90 115 124 110 98 90 84 69 56 43 35 34 26 24 32 29 41 50 54 46 34 29 22 24 27 31 35 42 34 23 28 28 21 353 306 272
126 222 237 264 248 181 167 341 74 141 169 166 154 145 133 116 96 98 91 90 91 85 71 58 56 46 45 45 46 49 41 37 43 40 33 19 21 19 13 16 29 34 20 14 9 7 3 335 312
305 322 238 297 248 179 210 317 44 210 230 168 148 145 134 125 118 117 114 111 104 90 76 65 63 66 60 62 60 64 56 44 43 34 31 26 26 23 22 30 21 26 9 3 11 1 359 357 318
237 293 315 305 275 246 135 220 242 266 149 136 138 144 141 132 131 129 125 119 109 96 84 70 72 75 72 73 70 64 58 51 50 41 34 34 25 26 18 22 26 23 10 5 21 0 341 359 349
313 283 279 263 211 228 209 246 177 187 141 136 151 152 149 148 145 132 126 117 107 104 86 72 71 80 85 84 81 76 69 61 55 46 39 36 32 24 23 20 17 12 7 360 21 1 347 342 315
301 299 303 239 240 227 193 239 231 171 160 154 165 163 155 145 143 141 134 120 115 99 93 81 78 80 87 91 87 79 73 63 55 48 40 33 30 27 27 22 14 2 0 8 8 2 357 4 348
321 294 278 298 190 242 177 252 233 174 169 178 179 166 155 145 146 140 130 118 113 108 99 88 77 80 91 96 90 80 66 61 53 44 39 38 36 33 33 29 17 4 10 10 4 2 353 351 343
6 255 244 296 246 266 201 239 263 178 185 185 181 168 153 142 144 149 135 129 126 123 118 99 82 82 90 92 87 81 71 63 55 50 45 40 37 33 38 30 14 7 11 14 7 357 2 340 343
212 222 237 246 274 147 209 252 282 162 190 194 175 165 162 163 163 154 138 128 119 107 101 98 93 97 103 99 96 85 74 65 58 55 47 41 36 33 32 26 17 13 18 12 5 360 350 337 347
139 221 266 271 281 294 259 256 245 260 160 185 177 175 172 167 158 151 143 129 117 106 99 87 91 81 123 111 105 86 71 60 54 53 45 38 32 28 30 25 21 20 22 8 8 355 360 354 358
260 268 273 287 277 254 270 259 261 247 222 205 187 183 175 165 165 158 149 143 126 115 101 87 72 57 60 77 88 95 88 64 64 56 47 38 30 26 28 19 15 14 14 12 8 14 2 350 6
245 247 258 262 285 262 288 266 247 249 225 213 191 192 181 175 166 163 156 144 127 116 103 86 75 66 64 90 97 97 88 61 46 38 42 35 27 20 19 18 14 11 12 10 3 10 8 0 348
242 228 243 244 205 255 58 285 237 230 225 241 206 185 177 172 167 160 150 143 131 120 105 95 81 70 62 67 79 84 91 86 70 63 51 39 30 23 19 15 16 14 13 9 6 3 1 4 358
246 240 234 214 222 236 204 250 258 214 240 252 256 198 182 172 162 156 150 141 129 122 114 107 94 82 77 79 91 94 94 92 82 67 60 47 29 24 20 22 17 16 14 8 6 9 12 14 7
331 133 91 88 151 253 186 208 271 234 236 287 281 198 175 163 148 132 124 125 124 120 117 111 101 90 81 81 83 87 91 87 78 66 59 50 35 26 23 18 20 15 10 1 8 20 20 11 14
199 162 208 235 212 249 186 210 243 304 321 278 275 165 150 145 131 130 134 143 142 142 129 120 111 99 96 95 91 95 98 97 94 82 76 63 47 40 27 11 15 16 11 6 14 24 21 15 11
216 197 196 211 231 255 206 236 249 40 47 60 101 130 125 122 130 142 151 151 154 147 138 126 123 119 116 111 106 105 103 99 94 89 82 76 66 53 41 21 13 13 13 17 26 24 27 21 10
214 215 217 244 120 251 214 170 68 67 90 95 110 113 123 135 149 163 171 174 170 163 161 155 156 150 144 126 114 107 100 94 90 81 73 66 61 57 48 30 23 9 10 21 34 32 23 28 15
215 171 205 219 231 236 233 220 191 170 140 141 149 152 154 160 173 184 181 171 166 160 168 165 157 148 138 126 126 116 111 99 93 78 68 64 64 53 46 34 24 10 11 19 37 36 23 29 25
193 195 211 202 209 232 239 247 199 160 170 173 183 178 174 181 191 185 174 170 160 156 162 154 136 137 134 131 131 126 120 105 94 86 81 80 69 58 52 27 7 16 18 29 31 37 34 29 24
73 89 112 193 199 154 97 244 210 192 195 186 194 202 199 197 193 181 170 158 158 161 156 155 147 141 141 133 127 117 107 102 97 88 81 72 70 59 56 31 7 27 45 34 34 37 33 35 26